Flag for Germany Weather past 2 weeks in Rottenburg am Neckar, Baden-Württemberg, Germany

Now
49 °F

Overcast.


Feels Like: 49 °F
Forecast: 37 / 59 °F
Wind: 1 mph from Northeast

Location: Stuttgart-Echterdingen

Current Time: Oct 26, 2014 at 6:56:29 AM

Latest Report: Oct 26, 2014 at 6:00 AM


Visibility: 9 mi

Pressure: 30.30 "Hg

Humidity: 95%

Dew point: 48 °F

Location of Rottenburg am NeckarLocation

Historic Weather in Rottenburg am Neckar — Graph

°F

Rottenburg am Neckar temperature yesterday

Maximum temperature yesterday: 55 °F (at 2:00 PM)
Minimum temperature yesterday: 42 °F (at 1:00 AM)
Average temperature yesterday: 49 °F

Past Weeks' High & Low Weather Summary

 TemperatureHumidityPressure
High75 °F (Oct 19, 4:00 PM)99% (Oct 18, 2:00 AM)30.30 "Hg (Oct 18, 2:00 AM)
Low37 °F (Oct 24, 8:00 AM)48% (Oct 19, 4:00 PM)29.65 "Hg (Oct 21, 7:00 PM)
Average55 °F83%30.01 "Hg
* Reported Oct 11 7:00 AM — Oct 26 6:00 AM, Rottenburg am Neckar, Weather by CustomWeather, © 2014

Note: Actual official high and low records may vary slightly from our data, if they occured in-between our weather recording intervals... More about our weather records

Advertising

Rottenburg am Neckar weather history for previous 24 hours

 ConditionsComfort  
Time TempWeatherWind HumidityBarometerVisibility
6:00 AM
Oct 26
49 °FOvercast.1 mph95%30.30 "Hg9 mi
5:00 AM49 °FOvercast.1 mph95%30.29 "Hg9 mi
3:00 AM50 °FOvercast.No wind93%30.28 "Hg11 mi
2:00 AM50 °FOvercast.1 mph94%30.28 "Hg11 mi
2:00 AM50 °FOvercast.1 mph91%30.27 "Hg11 mi
1:00 AM51 °FOvercast.1 mph88%30.27 "Hg12 mi
12:00 AM51 °FOvercast.1 mph88%30.25 "Hg12 mi
10:00 PM
Oct 25
53 °FOvercast.1 mph79%30.23 "Hg12 mi
9:00 PM53 °FOvercast.No wind79%30.22 "Hg12 mi
8:00 PM53 °FOvercast.1 mph78%30.21 "Hg12 mi
7:00 PM53 °FOvercast.1 mph81%30.19 "Hg12 mi
6:00 PM54 °FOvercast.1 mph78%30.18 "Hg16 mi
5:00 PM55 °FOvercast.2 mph73%30.16 "Hg16 mi
4:00 PM55 °FOvercast.2 mph70%30.16 "Hg19 mi
3:00 PM55 °FOvercast.2 mph69%30.15 "Hg12 mi
2:00 PM55 °FOvercast.1 mph68%30.15 "Hg11 mi
1:00 PM54 °FOvercast.1 mph81%30.16 "Hg11 mi
12:00 PM51 °FOvercast.1 mph83%30.17 "Hg11 mi
11:00 AM49 °FOvercast.1 mph87%30.17 "Hg11 mi
10:00 AM46 °FOvercast.1 mph94%30.16 "Hg9 mi
9:00 AM44 °FOvercast.1 mph97%30.16 "Hg9 mi
8:00 AM44 °FOvercast.1 mph97%30.15 "Hg12 mi
7:00 AM44 °FOvercast.1 mph96%30.14 "Hg16 mi
6:00 AM44 °FLight rain. Overcast.1 mph95%30.14 "Hg12 mi
Weather by CustomWeather, © 2014

See weather overviewHow to use our weather pages